Location: Houston
(29.7631°N, 95.3631°W)
Time: 23:25:14
(UTC-06:00)

DX 1 - Pass Details

Date: 20 November 2019
Orbit: 618 x 631 km, 98.4° (Epoch: 07 December)

Event Time Altitude Azimuth Distance (km) Brightness Sun altitude
Rises 18:13:41 0° 346° (NNW) 2,896 ? -11.0°
Reaches altitude 10° 18:16:59 10° 319° (NW) 1,988 ? -11.7°
Maximum altitude 18:18:55 13° 292° (WNW) 1,801 ? -12.1°
Drops below altitude 10° 18:20:51 10° 265° (W) 1,986 ? -12.5°
Sets 18:24:10 0° 237° (WSW) 2,891 ? -13.2°
